Wind_Speed
19 16 12 9 5 5 11 13 15 17 21 24 25 26 25 22 21 21 20 20 19 17 16 17 15 13 12 12 13 14 15 15 13 11 10 10 8 7 4 2 1 3 3 2 3
22 20 16 12 9 6 6 11 13 13 15 18 21 23 25 25 24 24 24 24 23 22 21 20 19 19 18 16 17 18 20 19 17 16 14 12 11 9 6 5 3 2 3 4 5
27 24 21 17 13 11 8 6 9 11 11 13 15 16 19 21 23 24 23 23 24 25 25 25 25 26 25 22 21 21 23 22 21 20 16 12 10 8 8 6 5 3 1 2 5
31 29 26 23 19 15 12 9 6 7 7 10 11 12 14 16 17 19 19 19 20 22 24 25 27 29 30 28 25 24 25 24 24 23 21 18 14 10 9 7 6 5 3 1 3
37 34 31 27 25 20 17 14 10 7 5 5 8 11 11 12 12 13 14 15 16 18 21 22 25 28 29 30 27 24 24 26 25 25 22 19 16 13 11 8 6 5 3 2 3
42 39 36 33 29 26 21 19 15 12 9 6 4 6 9 11 12 12 11 12 13 15 17 20 21 23 27 30 28 27 26 25 25 26 25 20 18 16 13 10 7 5 3 2 2
47 44 41 38 35 31 28 23 21 18 14 12 8 4 3 6 8 10 9 10 12 13 15 16 18 19 23 26 31 31 30 28 27 26 27 24 20 17 15 14 11 9 7 5 3
52 49 46 43 40 36 33 29 25 22 19 16 13 10 7 4 4 5 6 8 8 10 13 15 16 17 21 23 27 30 32 30 29 27 26 26 23 22 18 14 13 11 9 6 6
57 54 51 48 45 42 38 34 30 27 23 20 18 16 13 9 8 4 2 2 4 6 8 10 13 16 19 21 24 25 28 32 30 28 27 27 24 21 21 19 16 13 11 9 7
60 59 56 53 50 47 43 39 35 32 29 25 22 19 17 14 12 10 7 4 3 4 5 8 11 15 16 19 22 23 24 27 30 31 30 26 25 23 20 19 20 19 16 14 10
65 62 61 58 56 53 49 45 41 36 34 30 27 24 21 19 17 14 13 10 7 7 8 8 10 11 15 16 18 21 22 23 27 31 30 28 26 24 24 22 19 18 18 17 15
69 67 64 63 60 58 55 51 47 44 40 36 32 29 26 24 21 18 17 14 11 10 10 11 11 13 14 16 16 19 21 22 22 27 31 31 27 26 24 24 23 22 18 18 18
74 72 69 67 65 62 60 57 53 49 46 42 38 34 30 28 25 22 20 18 16 14 14 13 13 14 16 17 16 18 19 21 22 22 26 30 30 28 24 23 24 24 23 20 16
79 77 74 70 69 67 64 61 58 55 52 48 44 40 36 32 29 27 25 23 21 19 19 18 16 16 16 18 19 19 19 20 21 22 23 25 28 28 26 25 23 23 24 23 21
84 82 79 76 74 71 70 66 63 62 57 54 48 43 41 38 36 33 30 27 26 24 23 22 22 19 18 19 22 22 23 22 22 22 22 24 27 28 27 24 23 23 22 23 23
89 86 84 81 77 76 74 72 68 67 61 55 53 51 46 44 43 37 36 33 31 29 26 25 25 24 21 21 24 25 23 24 24 23 23 23 25 27 28 24 19 20 21 22 22
93 91 89 87 83 81 78 77 75 69 65 58 59 56 53 50 48 44 40 39 36 32 31 29 28 27 25 25 25 27 25 25 26 26 26 26 26 26 29 29 27 22 19 18 19
98 96 94 91 89 87 84 80 75 71 68 65 63 61 58 56 52 49 45 42 39 40 38 36 32 32 29 28 28 28 27 26 27 27 28 29 28 29 29 31 31 32 26 22 20
104 101 100 97 94 92 90 83 72 74 74 71 70 66 64 61 56 54 49 48 46 45 40 39 38 36 34 31 31 32 30 29 30 31 30 31 32 30 32 32 33 36 38 35 30
109 106 106 102 101 98 92 82 81 80 78 76 73 70 67 64 61 56 53 52 50 49 45 41 43 39 39 36 35 35 33 32 32 34 34 32 34 33 36 35 36 38 39 42 39
94 111 109 109 106 102 91 84 86 86 84 80 76 76 72 69 64 60 58 57 54 52 50 45 47 43 41 39 39 38 36 37 36 36 38 38 36 36 37 39 39 40 41 44 47
72 98 111 114 109 103 97 92 92 91 88 86 81 78 75 73 67 64 61 60 59 58 53 49 51 47 44 43 42 42 39 40 38 38 40 42 40 35 40 40 43 43 42 46 48
81 77 95 114 110 105 104 101 99 94 90 91 86 83 80 76 73 69 67 67 63 62 56 55 52 53 47 45 50 44 43 40 43 44 43 45 44 39 42 42 45 46 46 48 51
92 88 79 90 109 115 108 107 103 99 96 93 89 89 86 81 77 74 73 72 68 64 63 60 56 56 54 53 52 45 46 47 46 45 49 47 48 45 44 46 47 47 49 51 55
101 98 94 80 89 110 115 110 108 104 100 99 95 91 88 84 83 80 78 79 71 71 66 65 61 60 61 58 54 53 49 47 49 50 50 54 51 49 47 50 51 53 53 54 57
112 109 101 91 81 86 109 114 109 108 108 102 98 94 92 87 86 83 83 84 75 74 72 70 65 65 64 65 58 58 52 54 53 54 54 55 56 51 52 51 54 57 57 58 61
119 113 107 104 93 87 89 105 110 111 112 108 103 101 96 91 90 88 89 85 76 77 76 73 71 68 64 69 66 60 60 58 58 57 58 59 60 53 55 55 56 58 59 61 64
Wind_Direction
193 187 187 170 153 111 89 87 98 89 90 92 91 94 94 95 97 98 98 94 87 82 80 77 79 78 75 67 63 61 58 61 59 57 64 65 58 54 41 21 338 7 338 286 265
199 196 194 189 177 170 127 102 92 98 93 93 96 94 94 95 94 95 95 92 85 79 73 68 66 67 67 63 57 53 50 46 49 51 48 55 56 49 36 30 26 3 347 14 9
204 202 199 200 192 184 178 140 114 98 96 98 96 96 93 92 92 94 92 89 84 77 70 63 57 53 56 56 50 43 44 38 36 35 31 30 38 39 42 27 9 16 21 44 60
211 205 204 205 200 197 192 183 160 126 110 101 105 100 99 97 94 93 87 80 74 70 65 59 54 49 47 45 46 42 40 33 27 22 18 17 17 13 15 25 19 4 6 342 95
215 211 209 208 207 203 197 198 194 185 160 123 113 105 109 105 98 96 89 81 69 61 59 54 52 48 44 44 45 42 39 34 28 21 16 10 9 6 8 8 11 6 333 336 245
216 215 213 212 210 209 205 202 206 206 200 187 155 115 111 100 100 102 95 86 79 66 57 56 52 47 44 41 42 42 43 38 30 21 16 7 0 357 355 354 348 346 352 330 306
219 217 217 214 214 212 210 209 207 212 213 209 202 200 149 114 101 90 89 81 74 66 58 49 50 48 45 39 40 40 39 34 29 23 20 16 11 3 351 347 346 347 345 348 354
219 219 218 217 217 216 215 211 214 214 212 214 213 213 224 204 141 107 85 75 67 54 53 45 37 37 38 38 38 36 35 31 28 24 23 27 24 21 14 4 358 358 354 345 340
221 220 219 219 218 219 218 215 215 218 217 216 217 220 220 225 224 203 156 76 52 40 29 23 22 26 27 28 30 30 27 28 26 22 24 26 28 28 31 29 23 13 4 1 352
222 223 221 220 221 220 220 220 217 218 219 221 221 222 225 224 232 233 233 249 286 322 350 358 1 5 13 18 20 22 24 23 23 23 22 23 28 26 20 25 30 27 15 3 358
224 224 224 221 222 222 222 221 220 218 221 223 223 226 229 227 230 233 239 242 254 279 305 324 336 344 353 360 7 13 17 15 17 20 21 20 19 20 23 21 25 28 26 21 13
223 225 225 225 222 223 224 223 223 222 220 223 225 225 229 231 233 235 238 241 247 262 278 293 308 321 327 343 348 358 7 8 9 15 17 15 14 15 16 17 18 22 24 22 21
223 225 225 226 225 224 225 225 225 226 225 223 225 227 229 232 235 236 241 247 249 256 266 274 287 299 309 317 329 334 349 359 1 5 8 12 15 12 8 10 8 13 20 19 18
223 224 226 225 226 226 225 226 226 226 227 228 227 227 231 232 236 238 243 247 252 255 261 268 274 284 295 302 308 314 325 343 353 354 358 0 8 15 12 9 9 6 6 10 12
223 223 225 226 226 226 226 226 227 228 227 228 231 232 233 233 235 237 240 245 250 253 258 263 268 275 281 289 297 303 313 322 338 345 350 353 357 5 13 11 10 12 9 1 359
224 224 225 226 226 226 227 226 228 229 230 229 230 233 234 236 238 238 240 245 248 252 257 261 268 271 275 281 289 297 304 308 320 335 338 343 347 354 2 7 2 357 3 7 357
225 225 224 226 227 226 226 227 227 229 231 230 232 232 233 235 238 240 242 245 250 256 258 260 263 271 275 274 282 289 296 302 308 317 329 334 335 341 349 356 356 352 349 351 358
226 225 225 226 226 227 227 226 228 229 230 230 233 234 234 236 238 239 243 246 249 250 253 257 262 268 274 276 276 282 289 297 295 307 310 321 328 329 335 343 348 346 345 343 339
227 226 225 226 226 227 227 227 227 229 230 230 232 233 235 236 238 240 241 244 247 251 254 257 260 265 271 277 278 278 281 287 292 297 306 309 318 321 325 331 336 341 340 341 338
225 226 227 225 226 227 226 225 227 229 230 230 231 232 234 237 237 238 240 242 245 249 252 257 263 265 269 275 277 274 280 283 289 292 296 302 308 313 316 319 326 332 333 335 334
224 224 227 228 226 227 226 225 226 228 230 232 230 231 233 235 236 238 240 243 247 251 254 259 264 264 267 270 273 276 274 281 283 289 293 295 303 302 311 313 315 321 325 326 331
228 224 223 227 228 227 226 226 227 228 228 230 231 232 233 234 235 237 239 242 245 248 253 256 258 263 262 269 272 270 274 278 283 285 287 290 297 299 303 309 309 313 317 319 323
226 224 221 226 226 227 226 226 227 228 229 230 230 232 232 232 233 235 239 242 244 248 252 253 255 259 260 267 268 268 267 275 279 282 283 288 294 294 299 302 306 310 311 313 316
223 226 221 223 224 224 225 226 226 228 228 230 230 231 232 233 236 237 240 242 243 247 249 253 254 257 260 260 264 267 269 274 274 281 283 286 291 294 295 300 302 305 307 309 311
221 223 226 221 222 223 224 225 227 228 230 230 229 231 233 234 236 237 240 242 243 246 249 251 252 254 259 261 264 266 267 269 275 278 282 284 288 294 295 294 298 302 305 305 308
220 221 222 224 221 222 222 224 226 227 229 230 231 230 232 234 235 236 239 242 242 245 247 249 252 254 257 261 262 264 265 269 274 278 281 282 285 295 289 293 296 299 300 301 304
219 218 218 221 223 219 219 220 224 226 228 229 230 231 231 231 234 235 237 239 239 243 245 247 249 252 255 259 260 262 269 271 274 277 278 279 285 292 289 292 295 296 296 297 300
Height
11001 11002 11003 11005 11005 11005 11004 11003 11002 11002 11001 11000 10999 10998 10997 10998 10998 10998 10998 10998 10998 10997 10997 10996 10995 10994 10993 10993 10992 10989 10987 10986 10985 10983 10980 10979 10978 10977 10976 10974 10973 10972 10972 10972 10971
10998 11001 11003 11004 11005 11005 11006 11006 11004 11004 11004 11004 11003 11002 11001 11001 11001 11001 11001 11000 11000 10999 10998 10997 10996 10996 10995 10993 10991 10989 10986 10985 10984 10982 10981 10980 10979 10977 10975 10974 10973 10971 10970 10969 10968
10996 10998 11001 11002 11004 11005 11006 11006 11006 11006 11006 11006 11006 11005 11004 11004 11003 11003 11003 11003 11002 11001 10999 10998 10996 10995 10994 10992 10990 10989 10987 10985 10983 10982 10981 10980 10979 10976 10975 10974 10972 10971 10970 10969 10969
10992 10995 10998 11001 11002 11003 11005 11006 11007 11007 11007 11008 11007 11007 11007 11006 11006 11004 11004 11003 11002 11001 11000 10999 10998 10996 10993 10992 10990 10989 10987 10985 10983 10981 10979 10978 10977 10975 10974 10974 10971 10970 10969 10969 10968
10987 10991 10994 10997 11000 11002 11003 11005 11006 11007 11008 11008 11008 11008 11008 11008 11007 11006 11006 11005 11003 11002 11001 11000 10999 10998 10997 10995 10992 10992 10989 10987 10985 10982 10980 10977 10975 10974 10973 10972 10971 10970 10969 10968 10968
10981 10985 10989 10993 10995 10999 11001 11003 11005 11006 11007 11008 11008 11008 11009 11009 11009 11008 11008 11007 11006 11005 11004 11003 11002 11002 11000 10998 10997 10995 10991 10989 10987 10984 10981 10977 10973 10971 10970 10970 10969 10969 10968 10967 10966
10975 10979 10983 10988 10991 10994 10997 10999 11002 11004 11005 11006 11007 11008 11009 11009 11009 11008 11008 11008 11007 11006 11005 11004 11005 11005 11003 11001 10998 10995 10992 10990 10988 10986 10983 10978 10974 10971 10968 10966 10967 10967 10966 10966 10966
10966 10972 10977 10981 10985 10989 10992 10995 10998 11001 11003 11004 11005 11007 11008 11009 11009 11009 11008 11008 11008 11007 11006 11005 11005 11005 11004 11002 10999 10997 10993 10991 10989 10988 10985 10980 10976 10972 10969 10966 10964 10964 10964 10964 10963
10957 10963 10969 10974 10978 10983 10987 10990 10994 10996 10999 11001 11003 11005 11006 11008 11008 11008 11008 11008 11008 11007 11007 11006 11005 11004 11003 11003 11000 10998 10997 10992 10991 10990 10986 10982 10978 10976 10972 10968 10965 10963 10962 10961 10961
10947 10953 10959 10966 10970 10976 10979 10984 10988 10991 10994 10997 10999 11002 11004 11005 11006 11007 11007 11008 11007 11007 11006 11005 11004 11003 11003 11002 11001 11000 10999 10997 10994 10991 10987 10984 10981 10978 10975 10971 10967 10964 10961 10959 10959
10936 10943 10949 10955 10961 10967 10972 10976 10981 10986 10989 10992 10995 10997 11000 11002 11003 11005 11005 11006 11007 11006 11005 11004 11003 11002 11002 11002 11001 11000 10999 10999 10995 10992 10989 10985 10982 10979 10976 10973 10970 10967 10964 10961 10958
10925 10931 10938 10944 10951 10957 10963 10968 10973 10977 10983 10986 10989 10992 10995 10997 10999 11001 11002 11003 11004 11005 11004 11003 11002 11000 11000 11001 11000 10999 10999 10998 10998 10993 10990 10987 10983 10980 10977 10975 10972 10969 10965 10962 10960
10910 10918 10926 10932 10940 10946 10953 10959 10964 10969 10974 10979 10983 10986 10989 10992 10994 10996 10998 10999 11001 11002 11002 11002 11001 11000 10999 10998 10999 10999 10999 10998 10997 10996 10993 10990 10985 10981 10979 10975 10971 10969 10967 10964 10962
10895 10903 10912 10920 10927 10933 10942 10948 10954 10959 10964 10970 10975 10980 10983 10987 10989 10991 10993 10995 10997 10998 10999 10999 11000 11000 10999 10997 10997 10997 10997 10997 10997 10996 10994 10991 10988 10985 10981 10976 10972 10969 10966 10964 10962
10879 10887 10896 10906 10911 10921 10927 10936 10941 10946 10954 10961 10969 10974 10977 10980 10982 10985 10988 10990 10992 10994 10995 10997 10996 10997 10997 10996 10994 10994 10993 10993 10993 10993 10992 10990 10987 10985 10982 10979 10975 10972 10968 10963 10960
10860 10870 10880 10888 10896 10905 10914 10921 10928 10934 10945 10955 10959 10962 10969 10972 10973 10979 10981 10984 10986 10988 10991 10992 10992 10993 10994 10993 10991 10990 10990 10989 10988 10989 10988 10988 10985 10983 10981 10979 10977 10974 10970 10966 10962
10841 10851 10861 10870 10883 10886 10896 10905 10913 10926 10933 10946 10947 10952 10957 10962 10965 10970 10974 10976 10979 10982 10984 10986 10987 10989 10989 10990 10988 10987 10986 10985 10983 10981 10982 10982 10982 10980 10978 10976 10974 10972 10971 10968 10964
10819 10831 10842 10850 10861 10869 10879 10889 10904 10918 10923 10930 10935 10941 10947 10951 10957 10962 10966 10970 10972 10972 10976 10979 10982 10983 10985 10985 10984 10984 10982 10982 10980 10979 10976 10976 10977 10975 10973 10972 10970 10968 10967 10965 10962
10798 10809 10819 10831 10840 10848 10860 10879 10902 10901 10907 10915 10919 10927 10933 10940 10947 10952 10958 10960 10962 10963 10969 10971 10974 10976 10978 10979 10978 10977 10977 10977 10975 10974 10973 10971 10970 10969 10968 10966 10964 10962 10959 10957 10956
10771 10786 10793 10809 10817 10827 10845 10873 10879 10882 10889 10897 10907 10914 10920 10927 10935 10942 10946 10948 10952 10954 10958 10964 10965 10970 10970 10972 10971 10971 10971 10971 10970 10968 10967 10967 10965 10963 10960 10960 10957 10955 10953 10950 10948
10743 10758 10772 10783 10794 10810 10842 10856 10857 10863 10871 10882 10892 10898 10906 10913 10923 10930 10934 10937 10942 10944 10949 10955 10955 10961 10963 10964 10964 10964 10965 10964 10964 10963 10961 10959 10959 10956 10956 10952 10950 10948 10945 10941 10937
10723 10731 10750 10756 10777 10800 10820 10832 10834 10843 10855 10862 10876 10885 10894 10900 10910 10917 10922 10927 10930 10933 10939 10945 10945 10950 10955 10956 10956 10956 10957 10956 10957 10957 10954 10951 10951 10954 10950 10948 10943 10941 10940 10936 10932
10702 10708 10724 10729 10759 10783 10794 10804 10812 10826 10839 10845 10859 10869 10878 10886 10894 10903 10908 10911 10919 10923 10930 10933 10938 10937 10945 10948 10944 10948 10949 10951 10949 10947 10948 10942 10942 10946 10944 10941 10937 10934 10931 10928 10925
10678 10688 10700 10706 10730 10748 10766 10782 10793 10805 10816 10827 10843 10848 10859 10872 10882 10890 10894 10897 10906 10913 10916 10920 10926 10928 10931 10934 10935 10939 10940 10940 10941 10940 10935 10935 10932 10935 10935 10932 10931 10928 10924 10918 10914
10650 10663 10668 10694 10706 10723 10741 10758 10771 10787 10800 10806 10819 10833 10846 10858 10865 10874 10878 10880 10895 10896 10905 10907 10914 10916 10915 10920 10924 10927 10930 10931 10930 10929 10928 10922 10923 10924 10927 10922 10920 10917 10914 10911 10908
10618 10626 10653 10669 10685 10702 10719 10737 10754 10767 10768 10788 10804 10816 10826 10839 10847 10856 10860 10862 10880 10883 10889 10893 10902 10903 10906 10905 10913 10913 10921 10919 10921 10918 10917 10914 10910 10917 10911 10912 10908 10904 10900 10898 10895
10581 10609 10625 10641 10661 10676 10694 10710 10732 10737 10747 10765 10782 10791 10804 10822 10828 10835 10837 10845 10864 10868 10874 10881 10885 10891 10897 10892 10895 10906 10905 10907 10907 10906 10904 10902 10901 10908 10903 10900 10898 10894 10889 10884 10879